Tracking 19146 objects as of 22-Apr-2018
HD Live streaming from Space Station
objects crossing your sky now

CRRES DEB (CANISTER)

Track CRRES DEB (CANISTER) now!


NORAD ID: 27051
Int'l Code: 1990-065U
Perigee: 301.6 km
Apogee: 30,176.0 km
Inclination: 18.1 °
Period: 526.9 minutes
Semi major axis: 21609 km
RCS: 0.1304 m2 (medium)
Launch date: July 25, 1990
Source: United States (US)
Launch site: AIR FORCE EASTERN TEST RANGE (AFETR)

Note: This is SATELLITE DEBRIS
aabbcc
Your satellite tracking list
Your tracking list is empty




NASA's NSSDC Master Catalog

Two Line Element Set (TLE):
1 27051U 90065U   18112.13441012 +.00001057 +00000-0 +56480-3 0  9993
2 27051 018.1017 074.3192 6912243 141.4893 297.5182 02.73292143050471
Source of the keplerian elements: AFSPC